Showing default

LEMUR 2 JIN-LUEN, 43182

Orbit data source: Space-Track

LEMUR 2 JIN-LUEN, 43182 is a payload satellite owned by Spire (US) in SSO that was launched on Thu, 01 Feb 2018 UTC via a SOYUZ-2-1A launch vehicle from the Vostochny Cosmodrome (VOSTO). Payloads include a variety of satellites, spacecraft, and rockets equipped with specific instruments for various scientific and technological missions. These include communications satellites like Starlink; space stations such as the ISS; scientific satellites like the Hubble; Earth observation satellites from companies like Planet Labs, Umbra, and HawkEye 360; GPS; miniature CubeSats for education and research; and military/defense satellites.

Loading next visibility...
LEMUR 2 JIN-LUEN details
Identifier
43182, 2018-014C
Orbit
SSO
Last TLE update9 hours ago
Origin
Flag of USSpire (US)
ManufacturerSpire/Glasgow
MissionOperational Commercial Com/MetRO
Bus & MotorCUBESAT 3U, Unknown motor
Mass4.6 kg wet, 4.6 kg dry
Launch date (UTC)
2018-02-01 (7 years ago)
Launch vehicle
SOYUZ-2-1A
Launch site
Vostochny Cosmodrome (VOSTO)
Object type
Payload
Rocket body
Debris
Shape & HBRBox + 2 Pan, 0.7 m
Radar Cross Section0.124 m², Small (<0.1 m²)

Expand to show TLE details & history

TLE from 9 hours ago
0 LEMUR 2 JIN-LUEN
1 43182U 18014C   24361.24738231  .00031837  00000-0  13202-2 0  9990
2 43182  97.5718 264.4331 0012884  53.8063 306.4363 15.23739614377876
Epoch: 2024-12-26T05:56Z
Definitive object data (Epoch: 2024-12-26T05:56:13.831Z)
Latitude-0.00005°
Longitude80.14596°
Altitude492.41 km
Speed7.622 km/s
True Right ascension17h 37m 43s
True Declination0° 00' 00"
Sunlit
Object was in daylight at TLE epoch
Visualization TLE readout
Latitude-35.1269°
Longitude-104.81944°
Altitude516.327 km
Speed7.599 km/s
Apparent Right ascension03h 49m 47s
Apparent Declination-39° 43' 05"
Sunlit
Object is in full shadow
Visualization observer readout
Local Sidereal Time14:07:23
Azimuth262.291° W
Elevation-70.406°
Doppler factor1
Orbital elements
Apogee altitude500.392 km
Perigee altitude482.69 km
Semi-major axis6,869.678 km
Eccentricity0.0012884
Inclination97.5718°
RAAN264.4331°
Arg. of periapsis53.8063°
True anomaly306.31741°
Mean anomaly306.4363°
Eccentric anomaly306.37687°
Mean motion3.81187 °/min
BSTAR0.0013202
Orbital period94.44 mins
Loading maneuver chart data...
Loading historical data...
Loading historical data...
Loading historical data...
Loading historical data...
Loading historical data...
Loading historical data...
Loading historical data...

LEMUR 2 JIN-LUEN Visibility forecast

Observer location: undefined°, undefined

Span
Click to sort rows by Start time (UTC) header in descending order
Start Az.
Max El. time (UTC)
Max El. Az.
Max El.
End time (UTC)
End Az.
5 mins2024-12-26 17:06:30.301Z124.254° SE2024-12-26 17:09:30.301Z65.009° ENE21.987°2024-12-26 17:11:30.301Z23.516° NE
5 mins2024-12-27 06:09:30.301Z44.702° NE2024-12-27 06:11:30.301Z96.637° ESE28.372°2024-12-27 06:14:30.301Z160.892° S
|